Location: Newark
(7.0858°N, 171.3717°E)
Time: 05:08:02
(UTC+00:00)

Vanguard 2 - Pass Details

Date: 03 December 2020
Orbit: 553 x 2937 km, 32.9° (Epoch: 26 January)

Event Time Altitude Azimuth Distance (km) Brightness Sun altitude
Rises 12:31:39 0° 206° (SSW) 6,373 12.4 -74.8°
Reaches altitude 10° 12:41:18 10° 177° (S) 5,703 12.0 -74.3°
Maximum altitude 12:46:25 12° 160° (SSE) 5,619 12.0 -74.0°
Drops below altitude 10° 12:51:32 10° 143° (SE) 5,740 12.1 -73.5°
Sets 13:01:12 0° 115° (ESE) 6,479 12.4 -72.5°
